FENGYUN 1C DEB

Satellite information

Favourite Embed

Satellite Type and Status

DEBRISIN ORBIT

Key statistics

Satellite FENGYUN 1C DEB at a glance.

Uptime

9609

Days in orbit

Revolutions

≈ 14.2

Per day

Orbit

SSO

Sun Synchronous Orbit

Inclination

99.0

Latest

Satellite identification and parameters

Extended collection of information and parameters for FENGYUN 1C DEB.

Object identification

Identified? True

Debris? True

Object name: FENGYUN 1C DEB

International designator: 1999-025DQC

Object number (NORAD): 35220

Object ID (CCSDS): 35220

Country: PEOPLES REPUBLIC OF CHINA (PRC)

Current information (Y/N): Y

RCS size: SMALL

Orbital parameters

Period: 101.3 minutes

Inclination: 99.0368 deg

SMA: 7198.344 km

Apoapsis: 852.082 km

Periapsis: 788.336 km

RAAN: 304.8335 deg

Eccentricy: 0.0044278

Argument of periapsis: 259.7614 deg

Mean anomaly: 99.8568 deg

Mean motion: 14.21522923 rev/day

Mean motion (dot): 0.00002265 rev/day2

B* drag term: 0.001045493 1/REarth

Two-line elements (TLE)

Creation date: Aug. 25, 2025, 9:12 p.m.

Reference frame: TEME

Reference center: EARTH

Epoch: Aug. 25, 2025, 9:37 a.m. UTC

TLE line 0: 0 FENGYUN 1C DEB

TLE line 1: 1 35220U 99025DQC 25237.40101036 .00002265 00000-0 10455-2 0 9993

TLE line 2: 2 35220 99.0368 304.8335 0044278 259.7614 99.8568 14.21522923616294

Live tracking on map

Real-time ground track for satellite FENGYUN 1C DEB.

In-orbit conjunctions

A list of the most updated potential collisions computed for object FENGYUN 1C DEB.

Target Orbit TCA Probability of collision Miss distance Type
SL-16 R/B LEO 2025-08-08 22:33:48 0.002484227 45.0 (m) ROCKET BODY
FENGYUN 1C DEB SSO 2025-07-24 18:09:03 0.0001009105 354.0 (m) DEBRIS

Associated space launch

Chinese polar orbiting meteorological satellite

FENGYUN 1C DEB was lifted into orbit during the mission ‘Long March 4B | Feng Yun 1C’, on board a Long March 4B space rocket.

The launch took place on May 10, 1999, 1:33 a.m. from Launch Complex 7.

For more information about the launch, click the button.

Launch to space Long March 4B | Feng Yun 1C
Long March 4B | Feng Yun 1C

Agency: N/A

Status: Launch Successful

Launch date: May 10, 1999, 1:33 a.m. UTC

Rocket: Long March 4B

Launch pad: Launch Complex 7

Location: Taiyuan Satellite Launch Center, People's Republic of China

...

Latest news about this satellite

There are no fresh news available about this satellite. Check back as we update our databases every day.


Newsletter sign-up

Weekly statistics, charts and insights to help you stay on top of the space industry.